Weather History for KHYR - December, 2011

Change the Weather History Date:

Thursday, December 29, 2011

  Actual Average Record
Temperature  
Mean Temperature 26 °F -  
Max Temperature 28 °F 29 °F 46 °F (1999)
Min Temperature 21 °F 9 °F -25 °F (2013)
Degree Days  
Heating Degree Days 39    
Moisture  
Dew Point 22 °F    
Average Humidity 86    
Maximum Humidity 100    
Minimum Humidity 74    
Precipitation  
Precipitation 0.08 in - - ()
Sea Level Pressure  
Sea Level Pressure 29.56 in    
Wind  
Wind Speed 3 mph (SE)    
Max Wind Speed 6 mph    
Max Gust Speed -    
Visibility 6 miles    
Events Rain , Snow    
Averages and records for this station are not official NWS values.
T = Trace of Precipitation, MM = Missing Value Source: NWS Daily Summary

Daily Weather History Graph

Daily Weather History Graph

Search for Another Location

Airport or City:

Trip Planner

Search our weather history database for the weather conditions in past years. The results will help you decide how hot, cold, wet, or windy it might be!

Date:

Astronomy

Dec. 29, 2011 Rise Set
Actual Time 7:47 AM CST 4:28 PM CST
Civil Twilight 7:12 AM CST 5:02 PM CST
Nautical Twilight 6:35 AM CST 5:40 PM CST
Astronomical Twilight 5:58 AM CST 6:17 PM CST
Moon 10:23 AM CST 10:24 PM CST
Length of Visible Light 9h 49m
Length of Day
8h 40m
Waxing Crescent, 27% of the Moon is Illuminated
Dec 29
Waxing Crescent
Jan 1
First Quarter
Jan 9
Full
Jan 16
Last Quarter
Jan 23
New

Hourly Weather History & Observations

Time (CST) Temp. Windchill Dew Point Humidity Pressure Visibility Wind Dir Wind Speed Gust Speed Precip Events Conditions
12:53 AM 24.1 °F 18.2 °F 17.1 °F 75% 29.60 in 10.0 mi SSE 4.6 mph - N/A   Overcast
1:44 AM 24.8 °F 17.9 °F 17.6 °F 74% 29.52 in 2.0 mi SSE 5.8 mph - 0.00 in Snow Light Snow
1:53 AM 24.1 °F 17.0 °F 19.0 °F 81% 29.57 in 2.5 mi SSE 5.8 mph - 0.00 in Snow Light Snow
2:18 AM 24.8 °F 19.1 °F 19.4 °F 80% 29.50 in 1.5 mi SE 4.6 mph - 0.00 in Snow Light Snow
2:51 AM 24.8 °F - 21.2 °F 86% 29.50 in 1.0 mi Calm Calm - 0.02 in Snow Light Snow
2:53 AM 24.1 °F 19.7 °F 21.0 °F 88% 29.55 in 1.0 mi SSE 3.5 mph - 0.02 in Snow Light Snow
3:06 AM 24.8 °F 20.5 °F 21.2 °F 86% 29.49 in 1.2 mi SSE 3.5 mph - 0.00 in Snow Light Snow
3:18 AM 24.8 °F 17.9 °F 21.2 °F 86% 29.49 in 2.0 mi SSE 5.8 mph - 0.01 in Snow Light Snow
3:29 AM 24.8 °F 20.5 °F 21.2 °F 86% 29.48 in 1.0 mi SE 3.5 mph - 0.01 in Snow Light Snow
3:45 AM 24.8 °F 19.1 °F 21.2 °F 86% 29.47 in 1.5 mi SSE 4.6 mph - 0.03 in Snow Light Snow
3:53 AM 24.1 °F 18.2 °F 21.0 °F 88% 29.52 in 2.0 mi SE 4.6 mph - 0.03 in Snow Light Snow
4:14 AM 24.8 °F 20.5 °F 21.2 °F 86% 29.46 in 1.8 mi SE 3.5 mph - 0.01 in Snow Light Snow
4:18 AM 24.8 °F 17.9 °F 21.2 °F 86% 29.46 in 3.0 mi SE 5.8 mph - 0.01 in Snow Light Snow
4:37 AM 24.8 °F 20.5 °F 21.2 °F 86% 29.45 in 7.0 mi ESE 3.5 mph - 0.01 in Snow Light Snow
4:48 AM 24.8 °F 20.5 °F 21.2 °F 86% 29.45 in 6.0 mi ESE 3.5 mph - 0.01 in Snow Light Snow
4:53 AM 25.0 °F 19.3 °F 21.9 °F 88% 29.50 in 6.0 mi ESE 4.6 mph - 0.01 in Snow Light Snow
5:33 AM 24.8 °F 19.1 °F 21.2 °F 86% 29.45 in 8.0 mi SE 4.6 mph - 0.00 in   Overcast
5:53 AM 26.1 °F - 21.9 °F 84% 29.51 in 5.0 mi Calm Calm - 0.00 in   Overcast
6:14 AM 26.6 °F - 23.0 °F 86% 29.46 in 3.0 mi Calm Calm - 0.01 in Rain Light Freezing Rain
6:38 AM 26.6 °F - 24.8 °F 93% 29.47 in 5.0 mi Calm Calm - 0.01 in   Overcast
6:53 AM 26.1 °F - 24.1 °F 92% 29.53 in 4.0 mi Calm Calm - 0.01 in   Overcast
7:10 AM 26.6 °F - 24.8 °F 93% 29.49 in 3.0 mi Calm Calm - 0.00 in Rain Light Freezing Rain
7:40 AM 24.8 °F - 23.0 °F 93% 29.51 in 2.5 mi Calm Calm - 0.00 in Snow Light Snow
7:53 AM 25.0 °F - 23.0 °F 92% 29.56 in 1.0 mi Calm Calm - 0.01 in Snow Light Snow
8:00 AM 24.8 °F - 23.0 °F 93% 29.50 in 1.2 mi Calm Calm - 0.02 in Snow Light Snow
8:06 AM 24.8 °F - 24.8 °F 100% 29.51 in 0.8 mi Calm Calm - 0.03 in Snow Light Snow
8:26 AM 26.6 °F - 24.8 °F 93% 29.52 in 1.0 mi Calm Calm - 0.03 in Snow Light Snow
8:31 AM 26.6 °F - 24.8 °F 93% 29.52 in 2.0 mi Calm Calm - 0.03 in Snow Light Snow
8:41 AM 26.6 °F - 24.8 °F 93% 29.52 in 3.0 mi Calm Calm - 0.03 in   Overcast
9:07 AM 26.6 °F - 24.8 °F 93% 29.53 in 1.8 mi Calm Calm - 0.00 in Snow Light Snow
9:22 AM 26.6 °F - 24.8 °F 93% 29.53 in 2.5 mi Calm Calm - 0.00 in Snow Light Snow
9:29 AM 26.6 °F - 24.8 °F 93% 29.53 in 6.0 mi Calm Calm - 0.00 in   Overcast
9:36 AM 26.6 °F - 24.8 °F 93% 29.54 in 7.0 mi Calm Calm - 0.00 in   Overcast
9:45 AM 26.6 °F 22.6 °F 24.8 °F 93% 29.54 in 8.0 mi Variable 3.5 mph - 0.00 in   Overcast
9:53 AM 27.0 °F - 24.1 °F 89% 29.59 in 8.0 mi Calm Calm - 0.00 in   Overcast
11:53 AM 27.0 °F 23.0 °F 25.0 °F 92% 29.62 in 7.0 mi Variable 3.5 mph - N/A   Overcast
12:45 PM 28.4 °F - 24.8 °F 86% 29.56 in 10.0 mi Calm Calm - N/A   Overcast
12:53 PM 28.0 °F 22.8 °F 25.0 °F 88% 29.61 in 10.0 mi Variable 4.6 mph - N/A   Overcast
1:53 PM 28.0 °F 24.2 °F 23.0 °F 81% 29.62 in 10.0 mi Variable 3.5 mph - N/A   Overcast
2:53 PM 27.0 °F 21.6 °F 21.9 °F 81% 29.65 in 10.0 mi Variable 4.6 mph - N/A   Overcast
3:18 PM 26.6 °F - 21.2 °F 80% 29.60 in 10.0 mi Calm Calm - N/A   Overcast
3:53 PM 27.0 °F 23.0 °F 19.9 °F 75% 29.68 in 10.0 mi WNW 3.5 mph - N/A   Overcast
4:53 PM 26.1 °F - 21.0 °F 81% 29.69 in 10.0 mi Calm Calm - N/A   Overcast
5:53 PM 26.1 °F - 19.9 °F 78% 29.70 in 10.0 mi Calm Calm - N/A   Overcast
6:53 PM 26.1 °F - 19.9 °F 78% 29.71 in 10.0 mi Calm Calm - N/A   Overcast
7:53 PM 25.0 °F - 19.9 °F 81% 29.71 in 10.0 mi Calm Calm - N/A   Overcast
8:53 PM 24.1 °F - 19.9 °F 84% 29.72 in 10.0 mi Calm Calm - N/A   Overcast
9:53 PM 24.1 °F 19.7 °F 19.0 °F 81% 29.71 in 10.0 mi South 3.5 mph - N/A   Overcast
10:53 PM 24.1 °F 18.2 °F 19.0 °F 81% 29.72 in 10.0 mi ESE 4.6 mph - N/A   Overcast
11:11 PM 24.8 °F 20.5 °F 17.6 °F 74% 29.66 in 10.0 mi SE 3.5 mph - N/A   Overcast
11:53 PM 21.9 °F 17.2 °F 18.0 °F 85% 29.71 in 10.0 mi SE 3.5 mph - N/A   Overcast